Terug naar catalogus

NOAA 16 DEB

ActiefPO
NORAD 42407·DEBRIS·🇺🇸 United States

Gelanceerd Sep 21, 2000 vanaf Vandenberg Space Force Base

Loading…

Volgende Passages (komende 24 uur)

TLE

VersSource: Space-Track

Epoch: Sep 14, 2026, 13:44 UTC

1 42407U 00055TB  26257.57225202  .00106138  00000-0  51424-2 0  9991
2 42407  98.9505 122.3348 0007613  43.1353 317.0471 15.18039317544121

Volg NOAA 16 DEB in realtime met AllMySat

Download on the App Store